Giuseppe Marini

Olheiro-Chefe - Juve Stabia
4 Abr 2027
Domingo
Processo

Personalidade

Adaptabilidade (4) Ambição (12) Controvérsia (2) Lealdade (8) Pressão (6) Profissionalismo (11) Espírito Esportivo (5) Temperamento (13)

Perfil

Estilo de Treinamento Democrático
Licença Continental Pro
Determinação 3
Gestão de Pessoas 9
Motivação 6
Disciplina 11
Satisfação no Trabalho
49%
Fadiga
0%
Função Olheiro-Chefe
Salário 21.1K p/s
Contrato 14.03.2028

Desempenho

Comportamento Normal
Eficácia do Treinamento
17%
Desenvolvimento do Jogador
45%
Prevenção de Lesões
40%
Implementação Tática
25%

Eventos Recentes

Avaliou um jogador agora
Participou de uma reunião de recrutamento agora
Avaliou um jogador agora
Avaliou um jogador agora
Avaliou um jogador 7d atrás
Avaliou um jogador 7d atrás
Avaliou um jogador 7d atrás
Avaliou um jogador 7d atrás

Monitorando agora

77
Jogador Clube Status Habilidade Confiança Observado Última observação Último voto
Ibrahim Cissoko Zwolle Ativo 129 / 129 40% 5 03.04.2027 -
Irakli Yegoian Excelsior Ativo 121 / 123 40% 3 03.04.2027 -
Tommaso Milanese Ascoli Ativo 111 / 113 40% 5 03.04.2027 -
Sinoxolo Kwayiba Chippa United Ativo 113 / 105 40% 3 01.04.2027 -
Luca Connell Barnsley Ativo 108 / 114 40% 1 01.04.2027 -
Mikhail Ignatov Sochi Ativo 125 / 112 40% 4 31.03.2027 -
Jordhy Thompson Orenburg Ativo 99 / 122 40% 3 31.03.2027 -
Toni Tamarit Alverca Ativo 122 / 123 40% 1 31.03.2027 -
Tshepang Moremi Orlando Pirates Ativo 111 / 119 40% 2 30.03.2027 -
Dominik Yankov Arda Ativo 126 / 120 40% 2 30.03.2027 -
Leonardo Benedetti Virtus Entella Ativo 113 / 102 40% 2 30.03.2027 -
Tunde AVS Ativo 111 / 110 40% 3 29.03.2027 -
Lorenzo Ignacchiti Empoli Ativo 114 / 127 40% 1 29.03.2027 -
Charlie Webster Burton Albion Ativo 104 / 122 40% 1 29.03.2027 -
Lebogang Erasmus Platinum Stars Ativo 101 / 118 40% 3 28.03.2027 -
Johnly Yfeko Exeter City Ativo 102 / 115 40% 1 28.03.2027 -
Teboho Tau Ajax Cape Town Ativo 126 / 112 40% 4 27.03.2027 -
Giovanni Bruzzaniti Catania Ativo 117 / 110 40% 7 27.03.2027 -
Josh Neufville Bradford City Ativo 106 / 99 40% 3 27.03.2027 -
Keagan Manyama Ajax Cape Town Ativo 104 / 104 40% 4 26.03.2027 -
Niklas Vesterlund Utrecht Ativo 109 / 107 40% 5 25.03.2027 -
Kirill Danilin Fakel Ativo 95 / 93 40% 1 25.03.2027 -
Simphiwe Selepe Orlando Pirates Ativo 110 / 103 40% 1 24.03.2027 -
António Eirô Lokomotiv Sofia Ativo 107 / 102 40% 1 23.03.2027 -
Damián Puebla Orenburg Ativo 112 / 129 40% 2 22.03.2027 -
Francesco Amatucci Cittadella Ativo 108 / 115 40% 3 21.03.2027 -
Mauro Rodrigues Botev Plovdiv Ativo 111 / 99 40% 2 21.03.2027 -
Daniel Phillips Stevenage Ativo 107 / 110 40% 1 21.03.2027 -
Achraf el Bouchataoui Pro Vercelli Ativo 124 / 114 40% 2 20.03.2027 -
Fraser Murray Wigan Athletic Ativo 116 / 110 40% 2 20.03.2027 -
Tenton Yenne Baltika Ativo 104 / 99 40% 1 19.03.2027 -
Keagan Hlatshwayo SuperSport United Ativo 118 / 123 40% 2 17.03.2027 -
Kyreece Lisbie Colchester United Ativo 102 / 120 40% 2 14.03.2027 -
Camillo Tavernelli Arezzo Ativo 109 / 122 40% 3 14.03.2027 -
Jack Currie Oxford United Ativo 121 / 133 40% 2 13.03.2027 -
Nicolò Radaelli Mantova Ativo 121 / 129 40% 2 13.03.2027 -
Luca Villa Salernitana Ativo 103 / 105 40% 2 13.03.2027 -
Goodman Mosele Chippa United Ativo 102 / 112 40% 3 12.03.2027 -
Adil Taoui Lokomotiv Sofia Ativo 99 / 123 40% 3 10.03.2027 -
Jay Matete Milton Keynes Dons Ativo 113 / 121 40% 1 10.03.2027 -
Brian Figueroa Morelia Ativo 115 / 110 40% 2 09.03.2027 -
Ronaldo Vásquez Sumgayit Ativo 116 / 118 40% 1 06.03.2027 -
Kamogelo Sebelebele Orlando Pirates Ativo 109 / 107 40% 2 01.03.2027 -
Mohammad Javad Hosseinnejad Dinamo Makhachkala Ativo 114 / 114 40% 1 27.02.2027 -
Léo Pereira CSKA Sofia Ativo 122 / 104 40% 2 25.02.2027 -
Veljko Nikolić Aris Ativo 106 / 119 40% 1 24.02.2027 -
Michele Besaggio Avellino Ativo 108 / 119 40% 1 24.02.2027 -
Nicolás Arévalo Metalist Ativo 117 / 118 40% 1 21.02.2027 -
Berna CSKA 1948 Ativo 103 / 119 40% 1 21.02.2027 -
Matías González Volos NPS Ativo 111 / 107 40% 1 20.02.2027 -
Luka Vešner Tičić Nizhniy Novgorod Ativo 110 / 108 40% 2 16.02.2027 -
Arinaldo Rrapaj Kolos Ativo 97 / 120 40% 1 15.02.2027 -
Artem Slesar Zorya Ativo 108 / 130 40% 2 14.02.2027 -
Bernat Guiu Virtus Entella Ativo 124 / 110 40% 1 14.02.2027 -
Faiz Mattoir Septemvri Ativo 96 / 95 40% 1 13.02.2027 -
Doğucan Haspolat Westerlo Ativo 124 / 121 40% 1 13.02.2027 -
Kirill Schetinin Akhmat Grozny Ativo 107 / 129 40% 1 10.02.2027 -
Davide Merola Pescara Ativo 105 / 108 40% 1 09.02.2027 -
Andrea Ciofi Cesena Ativo 132 / 114 40% 1 09.02.2027 -
Daniel Kyerewaa Reading Ativo 120 / 114 40% 1 07.02.2027 -
Ivan Komarov Rostov Ativo 118 / 126 40% 1 06.02.2027 -
Thalente Mbatha Orlando Pirates Ativo 110 / 112 40% 1 04.02.2027 -
Lindon Emërllahu Polissia Ativo 105 / 112 40% 1 01.02.2027 -
Edwar López Deportes Tolima Rejeitado 117 / 117 67% 1 01.01.2027 Rejeitar
Ciprian Coman Pandurii Rejeitado 114 / 125 66% 1 01.01.2027 Rejeitar
Valerio Maccaroni AS Roma Rejeitado 93 / 104 72% 1 01.01.2027 Rejeitar
Patricio Moyano Cobresal Rejeitado 113 / 116 64% 1 01.01.2027 Rejeitar
Qara Ozobic Inter Rejeitado 102 / 102 66% 1 01.01.2027 Rejeitar
Robin Lod Chicago Fire Ativo 118 / 133 40% 1 04.08.2026 -
Maximiliano Gómez Nacional Ativo 115 / 125 40% 1 04.08.2026 -
Carles Gil New England Revolution Ativo 142 / 132 40% 1 04.08.2026 -
Javier Correa Colo-Colo Ativo 112 / 133 40% 1 02.08.2026 -
Antoine Griezmann Orlando City Ativo 157 / 149 40% 1 02.08.2026 -
Duván Zapata Torino Ativo 144 / 142 40% 1 02.08.2026 -
Tyreece Campbell Charlton Athletic Ativo 114 / 127 40% 1 01.08.2026 -
Juan Otero Gijón Ativo 135 / 132 40% 1 01.08.2026 -
Franco García Colón Ativo 121 / 110 40% 1 01.08.2026 -